Regional Weather Roundup
Issued by NWS

Home | Current Version | Previous Version | Text Only | Print | Product List | Glossary On
Versions: 1 2 3 4 5 6 7 8 9 10 11 12 13 14 15 16 17 18 19 20 21 22 23 24 25 26 27 28 29 30 31 32 33 34 35 36 37 38 39 40 41 42 43 44 45 46 47 48 49 50
605
ASUS43 KBIS 110131
RWRND
NORTH DAKOTA REGIONAL WEATHER ROUNDUP
NATIONAL WEATHER SERVICE EASTERN NORTH DAKOTA/GRAND FORKS ND
700 PM CST WED FEB 10 2016

  NOTE: "FAIR" INDICATES FEW OR NO CLOUDS BELOW 12,000 FEET WITH NO
  SIGNIFICANT WEATHER AND/OR OBSTRUCTIONS TO VISIBILITY.

NDZ001>003-009>011-017-110200-
...NORTHWEST NORTH DAKOTA...

CITY           SKY/WX    TMP DP  RH WIND       PRES   REMARKS
WILLISTON      CLOUDY    28  25  88 NE7       30.15R WCI  21
MINOT          CLOUDY    13   6  74 NE5       30.20R WCI   5
MINOT AFB      FLURRIES  12   9  85 NE5       30.20R WCI   4
$$

NDZ018>021-031>035-040>046-110200-
...SOUTHWEST NORTH DAKOTA...

CITY           SKY/WX    TMP DP  RH WIND       PRES   REMARKS
BISMARCK       CLOUDY    20  12  71 E7        30.18R WCI  11
DICKINSON      CLOUDY    29  25  85 N6        30.10R WCI  23
GARRISON         N/A     15  10  80 NE6       30.16R WCI   6
HETTINGER      CLOUDY    32  26  78 N12       30.10R WCI  23
$$

NDZ004>008-012>016-024-026-027-054-110200-
...NORTHEAST NORTH DAKOTA...

CITY           SKY/WX    TMP DP  RH WIND       PRES   REMARKS
GRAND FORKS    CLOUDY    10   1  67 N9        30.29R WCI  -3
GRAND FORKS AF CLOUDY     7   0  71 NE6       30.28R WCI  -3
DEVILS LAKE    FLURRIES   6   1  80 E8        30.23S WCI  -7
$$

NDZ022-023-025-028>030-036>039-047>053-110200-
...SOUTHEAST NORTH DAKOTA...

CITY           SKY/WX    TMP DP  RH WIND       PRES   REMARKS
JAMESTOWN      CLOUDY     8   3  80 E9        30.20R WCI  -5
FARGO          CLOUDY    11   2  67 N10       30.26R WCI  -3
WAHPETON       CLOUDY    12   3  67 N6        30.26R WCI   3
$$




USA.gov is the U.S. government's official web portal to all federal, state and local government web resources and services.